User: anonymous   Login
Location: Home
(42.5358°N, 72.7383°W)
Time: 13:45:54
(UTC-05:00)
Language:

COSMOS 2251 DEB - Orbit

View from above orbital plane
View from above orbital plane
View from above satellite
View from above satellite

Ground track
Ground track

The orbit data is extracted from the following two-line orbital elements,

1 47048U 93036BXC 22325.46266266  .00003481  00000-0  10638-2 0  9992
2 47048  73.9857 238.3838 0176551 323.0309 156.0652 14.33622811566827
Epoch (UTC): 21 November 2022 11:06:14
Eccentricity: 0.0176551
inclination: 73.9857°
perigee height: 653 km
apogee height: 906 km
right ascension of ascending node: 238.3838°
argument of perigee: 323.0309°
revolutions per day: 14.33622811
mean anomaly at epoch: 156.0652°
orbit number at epoch: 56682

The dashed part of the orbit path shows where the satellite is in the earth's shadow,  

DLR